Regional Weather Roundup
Issued by NWS Portland, ME

Home | Current Version | Previous Version | Text Only | Print | Product List | Glossary On
Versions: 1 2 3 4 5 6 7 8 9 10 11 12 13 14 15 16 17 18 19 20 21 22 23 24 25 26 27 28 29 30 31 32 33 34 35 36 37 38 39 40 41 42 43 44 45 46 47 48 49 50
000
ASUS41 KGYX 232210
RWRGYX
WEATHER ROUNDUP FOR MAINE AND NEW HAMPSHIRE
NATIONAL WEATHER SERVICE GRAY ME
500 PM EST SUN NOV 23 2014

MEZ002-005-006-010-012-015-018-020-021-024-026-027-029-232300-
MAINE

CITY           SKY/WX    TMP DP  RH WIND       PRES   REMARKS
PORTLAND       PTCLDY    49  40  71 S5        30.10R
SANFORD        PTCLDY    41  30  65 SW3       30.11R
BAR HARBOR     CLOUDY    46  41  81 S3        30.11S
WISCASSET      CLEAR     39  35  86 CALM      30.12R
ROCKLAND       PTCLDY    45  39  81 CALM      30.10S
FRYEBURG       CLEAR     44  38  79 SW5       30.09R
LEWISTONAUBURN CLEAR     46  37  71 S5        30.09S
AUGUSTA        CLEAR     48  36  63 S3        30.09S
WATERVILLE     PTCLDY    43  34  70 CALM      30.06S
BANGOR         CLOUDY    46  33  60 NE3       30.10F
GREENVILLE       N/A     37  33  85 CALM      30.03F
MILLINOCKET    CLOUDY    41  35  79 CALM      30.10S
HOULTON        CLOUDY    35  30  82 S3        30.08R
PRESQUE ISLE   CLOUDY    37  27  65 CALM      30.05F
FRENCHVILLE    CLOUDY    35  30  82 SW3       30.03R
CARIBOU        CLOUDY    38  30  73 CALM      30.04S
$$

NHZ002-005-008-009-011-012-014-232300-
NEW HAMPSHIRE

CITY           SKY/WX    TMP DP  RH WIND       PRES   REMARKS
PORTSMOUTH     CLOUDY    50  39  66 CALM      30.09R
ROCHESTER      PTCLDY    53  40  61 CALM      30.09R
NASHUA         MOCLDY    54  37  52 CALM      30.12R
MANCHESTER     CLOUDY    52  37  56 S7        30.09R
CONCORD        CLOUDY    47  38  71 CALM      30.09R
LACONIA        PTCLDY    41  36  81 E5        30.08R
PLYMOUTH       FAIR      37  37 100 CALM      30.09R FOG
BERLIN         CLOUDY    36  34  92 W5        30.06S
WHITEFIELD     CLOUDY    37  34  89 CALM      30.07R
JAFFREY        CLOUDY    45  36  70 S5        30.10R
LEBANON        CLOUDY    42  36  79 CALM      30.07R
MT WASHINGTON  FOG       28  28 100 NW38G45     N/A  VSB 0   WCI  11
$$

VTZ005-007-008-232300-
VERMONT

CITY           SKY/WX    TMP DP  RH WIND       PRES   REMARKS
ST JOHNSBURY     N/A     39  37  92 MISG      30.07R
MONTPELIER     PTCLDY    45  38  76 SW8       30.10R
BURLINGTON     MOCLDY    48  38  68 S5        30.05R
$$

MAZ007-012-024-CTZ003-RIZ002-NYZ038-NYZ072-232300-
SOUTHERN NEW ENGLAND AND NY

CITY           SKY/WX    TMP DP  RH WIND       PRES   REMARKS
BOSTON         MOCLDY    53  38  56 S6        30.13R
WORCESTER      MOCLDY    50  35  56 S5        30.11R
NANTUCKET      CLEAR     50  44  80 SW10      30.17F
PROVIDENCE     MOCLDY    50  31  48 SW8       30.14S
HARTFORD       CLOUDY    55  29  36 S9        30.10S
ALBANY         MOCLDY    52  29  41 S7        30.06F
NEW YORK CITY  MOCLDY    51  34  52 S7        30.13S
$$

ANZ081-ANZ082-ANZ150-NHZ014-MEZ023>029-232300-
COASTAL MARINE OBSERVATIONS

STATION/POSITION TIME  TEMP    WIND        PRES    WAVE
                       AIR SEA DIR/SP/G            HT/PER
                 (UTC) (F)     (DEG/KT/KT) (MB)    (FT/S)
MOUNT DESERT ROC 2200   50                 1019.6R
MATINICUS ROCK   2200          270/  8/  9 1019.4R
PORTLAND WX BUOY 2150   51 51  190/ 10/ 10 1019.0R   2/ 5
WELLS            2100   55 45  260/  3/  5 1018.2R
ISLE OF SHOALS   2200   52     180/ 11/ 13 1018.7R
JEFFREYS LEDGE   2121      51                N/A     2/10
CASHES LEDGE BUO 2150   51 51  230/  8/  8 1019.6R   4/ 5
$$

.............KEY..............
   WCI - WIND CHILL
   TC  - TEMPERATURE IN CELSIUS
   VSB - VISIBILITY IN MILES
   HX  - HEAT INDEX
   FAIR- INDICATES FEW OR NO CLOUDS BELOW 12,000 FT, WITH NO
         SIGNIFICANT WEATHER AND/OR OBSTRUCTIONS TO VISIBILITY.





USA.gov is the U.S. government's official web portal to all federal, state and local government web resources and services.